DRAGON CRS-20 DEB (45342 NORAD) Tracking and Keplerian Element Data

This shows tracking and keplerian element data for the satellite.

Feedback or suggestion? Click here.




ElementValue
Catalog45342
NameDRAGON CRS-20 DEB
Epoch Orbit110
Epoch Day74.0406296
Epoch Year2020
RAAN96.677
Inclination51.6397
Eccentricity0.0018945
Argument of Perigee82.8389
Mean Anonmoly278.1173
Mean Motion16.40707414
Decay Rate0.26379275
L11 45342U 20016B 20074.04062960 .26379275 12457-4 13357-2 0 9992
L22 45342 51.6397 96.6770 0018945 82.8389 278.1173 16.40707414 1106

Live tracking and technical data element details for DRAGON CRS-20 DEB (NORAD 45342). DRAGON CRS-20 DEB can be tracked NOW for your location showing map with azimuth and elevation plus other details from your city location.

Track the satellite on the map from your city or location and see movement details for azimuth, elevation, latitude, longitude, range, height, and movement on the map or in text.







IsCatalogInMostPopularTable: catalog: 45342, numindb: 23
Update: records affected: 1



GetName: 45342 DRAGON CRS-20 DEB

Hit Count: updated at: Mon, 06 Jul 2020 04:53:44 GMT